Terminal Aerodrome Forecast
Issued by NWS New Orleans/Baton Rouge, LA

Home | Current Version | Previous Version | Text Only | Print | Product List | Glossary On
Versions: 1 2 3 4 5 6 7 8 9 10 11 12 13 14 15 16 17 18 19 20 21
000
FTUS44 KLIX 181348 AAA
TAFBTR
TAF AMD
KBTR 181348Z 1814/1912 14005KT 5SM -RA OVC050
      TEMPO 1814/1816 2SM RA BKN030
     FM181800 19011KT P6SM SCT045 BKN120
     FM190400 19006KT P6SM BKN008
     FM191000 21004KT 3SM BR BKN003=

USA.gov is the U.S. government's official web portal to all federal, state and local government web resources and services.